Weather History for Oskaloosa, IA

Change the Weather History Date:

Tuesday, January 14, 2014

  Actual Average (KOTM) Record (KOTM)
Temperature  
Mean Temperature 26 °F 22 °F  
Max Temperature 36 °F 31 °F 65 °F (1952)
Min Temperature 16 °F 13 °F -21 °F (1957)
Degree Days  
Heating Degree Days 39 43  
Month to date heating degree days 596  
Since 1 July heating degree days 3101  
Cooling Degree Days 0 0  
Month to date cooling degree days 0  
Year to date cooling degree days 0  
Moisture  
Dew Point 20 °F    
Average Humidity 73    
Maximum Humidity 90    
Minimum Humidity 60    
Precipitation  
Precipitation 0.01 in 0.02 in 0.56 in (1960)
Month to date precipitation 0.44  
Year to date precipitation 0.44  
Sea Level Pressure  
Sea Level Pressure 29.87 in    
Wind  
Wind Speed 18 mph (WNW)    
Max Wind Speed 36 mph    
Max Gust Speed 45 mph    
Visibility 10 miles    
Events Rain , Snow    
T = Trace of Precipitation, MM = Missing Value Source: NWS Daily Summary

Daily Weather History Graph

Daily Weather History Graph

Search for Another Location

Airport:

Trip Planner

Search our weather history database for the weather conditions in past years. The results will help you decide how hot, cold, wet, or windy it might be!

Date:

Astronomy

Jan. 14, 2014 Rise Set
Actual Time 7:33 AM CST 5:04 PM CST
Civil Twilight 7:03 AM CST 5:35 PM CST
Nautical Twilight 6:29 AM CST 6:09 PM CST
Astronomical Twilight 5:56 AM CST 6:42 PM CST
Moon 4:10 PM CST (1/14) 6:08 AM CST (1/14)
Length of Visible Light 10h 32m
Length of Day
9h 31m
Waxing Gibbous, 98% of the Moon is Illuminated
Jan 14
Waxing Gibbous
Jan 15
Full
Jan 23
Last Quarter
Jan 30
New
Feb 6
First Quarter

Hourly Weather History & Observations

Time (CST) Temp. Windchill Dew Point Humidity Pressure Visibility Wind Dir Wind Speed Gust Speed Precip Events Conditions
12:15 AM 28.8 °F 19.5 °F 24.3 °F 83% 29.69 in 10.0 mi South 10.4 mph - N/A   Clear
12:35 AM 29.3 °F 20.2 °F 24.3 °F 81% 29.68 in 10.0 mi South 10.4 mph - N/A   Clear
12:55 AM 29.8 °F 20.9 °F 24.4 °F 80% 29.67 in 10.0 mi SSW 10.4 mph - N/A   Clear
1:15 AM 31.6 °F 21.6 °F 24.6 °F 75% 29.65 in 10.0 mi SSW 13.8 mph - N/A   Clear
1:35 AM 31.5 °F 21.4 °F 24.6 °F 76% 29.65 in 10.0 mi SSW 13.8 mph - N/A   Clear
1:55 AM 31.6 °F 22.1 °F 24.6 °F 75% 29.65 in 10.0 mi SSW 12.7 mph - N/A   Clear
2:15 AM 31.6 °F 22.6 °F 24.6 °F 75% 29.64 in 10.0 mi SSW 11.5 mph - N/A   Clear
2:35 AM 31.6 °F 23.1 °F 24.6 °F 75% 29.64 in 10.0 mi SSW 10.4 mph - N/A   Scattered Clouds
2:55 AM 32.0 °F 23.6 °F 25.3 °F 76% 29.62 in 10.0 mi SSW 10.4 mph - N/A   Mostly Cloudy
3:15 AM 33.8 °F 23.5 °F 25.9 °F 73% 29.63 in 10.0 mi SW 16.1 mph - N/A   Overcast
3:35 AM 33.8 °F 24.8 °F 27.3 °F 77% 29.62 in 7.0 mi SW 12.7 mph - N/A Rain Light Rain
3:55 AM 33.3 °F 24.6 °F 28.4 °F 82% 29.61 in 10.0 mi SW 11.5 mph - N/A Rain Rain
4:15 AM 33.3 °F 24.6 °F 29.3 °F 85% 29.61 in 10.0 mi SW 11.5 mph - N/A Rain Light Rain
4:35 AM 33.3 °F 24.6 °F 30.0 °F 88% 29.61 in 7.0 mi SW 11.5 mph - N/A Rain Light Rain
4:55 AM 33.3 °F 24.6 °F 30.7 °F 90% 29.62 in 10.0 mi WSW 11.5 mph - N/A Rain Rain
5:15 AM 33.8 °F 25.3 °F 30.7 °F 89% 29.62 in 10.0 mi WSW 11.5 mph - N/A Rain Light Rain
5:35 AM 34.2 °F 25.2 °F 31.1 °F 89% 29.63 in 10.0 mi WSW 12.7 mph - N/A Rain Rain
5:55 AM 34.7 °F 25.1 °F 32.0 °F 90% 29.64 in 10.0 mi West 15.0 mph - N/A Rain Rain
6:15 AM 35.6 °F 24.8 °F 32.0 °F 87% 29.65 in 10.0 mi West 19.6 mph 24.2 mph N/A   Overcast
6:35 AM 36.5 °F 25.4 °F 32.0 °F 84% 29.66 in 10.0 mi WNW 21.9 mph 28.8 mph N/A   Overcast
6:55 AM 36.7 °F 24.4 °F 31.1 °F 80% 29.68 in 10.0 mi WNW 27.6 mph 44.9 mph 0.01 in   Overcast
7:15 AM 35.6 °F 23.4 °F 30.2 °F 81% 29.69 in 10.0 mi NW 25.3 mph 34.5 mph N/A   Overcast
7:35 AM 34.7 °F 21.5 °F 29.3 °F 81% 29.71 in 10.0 mi WNW 28.8 mph 36.8 mph N/A   Overcast
7:55 AM 34.0 °F 21.3 °F 28.0 °F 79% 29.73 in 10.0 mi NW 25.3 mph 35.7 mph N/A   Overcast
8:15 AM 33.3 °F 20.6 °F 25.7 °F 74% 29.76 in 10.0 mi NW 24.2 mph 33.4 mph N/A   Scattered Clouds
8:35 AM 33.1 °F 19.8 °F 25.3 °F 73% 29.78 in 10.0 mi NW 26.5 mph 34.5 mph N/A   Clear
8:55 AM 32.9 °F 19.6 °F 25.7 °F 75% 29.79 in 10.0 mi NW 26.5 mph 36.8 mph N/A   Scattered Clouds
9:15 AM 31.8 °F 18.4 °F 24.3 °F 74% 29.81 in 10.0 mi NW 25.3 mph 35.7 mph N/A   Mostly Cloudy
9:35 AM 31.6 °F 18.4 °F 24.1 °F 74% 29.82 in 10.0 mi NW 24.2 mph 29.9 mph N/A   Mostly Cloudy
9:55 AM 31.1 °F 15.5 °F 24.3 °F 76% 29.83 in 10.0 mi WNW 34.5 mph 44.9 mph N/A   Overcast
10:15 AM 31.1 °F 17.4 °F 23.7 °F 74% 29.85 in 10.0 mi WNW 25.3 mph 34.5 mph N/A   Overcast
10:35 AM 30.9 °F 17.5 °F 23.7 °F 75% 29.87 in 10.0 mi WNW 24.2 mph 35.7 mph N/A   Overcast
10:55 AM 30.2 °F 16.8 °F 23.2 °F 75% 29.87 in 10.0 mi NW 23.0 mph 32.2 mph N/A   Overcast
11:15 AM 29.1 °F 13.7 °F 19.9 °F 69% 29.88 in 10.0 mi NW 29.9 mph 39.1 mph N/A   Overcast
11:35 AM 29.3 °F 14.7 °F 19.6 °F 67% 29.89 in 10.0 mi NW 26.5 mph 36.8 mph N/A   Overcast
11:55 AM 29.3 °F 13.7 °F 18.7 °F 65% 29.88 in 10.0 mi NW 31.1 mph 43.7 mph N/A   Overcast
12:15 PM 29.5 °F 14.7 °F 19.4 °F 66% 29.88 in 10.0 mi NW 27.6 mph 34.5 mph N/A   Overcast
12:35 PM 29.1 °F 15.4 °F 19.8 °F 68% 29.89 in 10.0 mi NW 23.0 mph 32.2 mph N/A   Overcast
12:55 PM 28.9 °F 15.1 °F 19.4 °F 68% 29.90 in 10.0 mi NW 23.0 mph 34.5 mph N/A Snow Light Snow
1:15 PM 28.9 °F 14.5 °F 20.7 °F 71% 29.91 in 10.0 mi NW 25.3 mph 33.4 mph N/A Snow Light Snow
1:35 PM 27.5 °F 12.9 °F 21.7 °F 79% 29.92 in 4.0 mi WNW 24.2 mph 39.1 mph N/A Snow Light Snow
1:55 PM 27.9 °F 12.8 °F 18.5 °F 68% 29.92 in 10.0 mi NW 26.5 mph 41.4 mph N/A   Overcast
2:15 PM 28.2 °F 11.3 °F 17.4 °F 64% 29.93 in 10.0 mi WNW 35.7 mph 43.7 mph N/A   Overcast
2:35 PM 28.4 °F 13.0 °F 16.0 °F 60% 29.94 in 10.0 mi WNW 28.8 mph 39.1 mph N/A   Overcast
2:55 PM 28.0 °F 12.3 °F 15.6 °F 60% 29.95 in 10.0 mi WNW 29.9 mph 39.1 mph N/A   Overcast
3:15 PM 27.9 °F 11.5 °F 15.4 °F 60% 29.96 in 10.0 mi WNW 32.2 mph 39.1 mph N/A   Overcast
3:35 PM 27.5 °F 10.3 °F 16.0 °F 62% 29.97 in 10.0 mi WNW 35.7 mph 41.4 mph N/A   Overcast
3:55 PM 27.1 °F 11.6 °F 16.9 °F 65% 29.98 in 10.0 mi WNW 27.6 mph 38.0 mph N/A   Overcast
4:15 PM 26.8 °F 10.5 °F 16.2 °F 64% 29.99 in 10.0 mi WNW 29.9 mph 44.9 mph N/A Snow Light Snow
4:35 PM 25.9 °F 9.3 °F 16.2 °F 67% 30.00 in 7.0 mi NW 29.9 mph 44.9 mph N/A Snow Light Snow
4:55 PM 25.3 °F 9.4 °F 14.9 °F 65% 30.02 in 10.0 mi NW 26.5 mph 38.0 mph N/A   Overcast
5:15 PM 24.6 °F 8.2 °F 16.0 °F 70% 30.02 in 10.0 mi NW 27.6 mph 33.4 mph N/A   Overcast
5:35 PM 23.9 °F 9.1 °F 15.3 °F 70% 30.03 in 10.0 mi NW 20.7 mph 28.8 mph N/A   Overcast
5:55 PM 23.9 °F 8.1 °F 13.8 °F 65% 30.04 in 10.0 mi NW 24.2 mph 39.1 mph N/A   Mostly Cloudy
6:15 PM 23.7 °F 7.2 °F 14.4 °F 67% 30.05 in 10.0 mi NW 26.5 mph 33.4 mph N/A   Overcast
6:35 PM 23.2 °F 7.1 °F 13.5 °F 66% 30.06 in 10.0 mi NW 24.2 mph 34.5 mph N/A   Mostly Cloudy
6:55 PM 22.6 °F 6.8 °F 13.3 °F 67% 30.07 in 10.0 mi NW 23.0 mph 33.4 mph N/A   Mostly Cloudy
7:15 PM 21.9 °F 6.5 °F 13.1 °F 69% 30.07 in 10.0 mi NW 20.7 mph 31.1 mph N/A   Mostly Cloudy
7:35 PM 21.2 °F 5.2 °F 13.1 °F 71% 30.07 in 10.0 mi NW 21.9 mph 27.6 mph N/A   Scattered Clouds
7:55 PM 21.0 °F 4.6 °F 12.9 °F 71% 30.07 in 10.0 mi NW 23.0 mph - N/A   Mostly Cloudy
8:15 PM 20.7 °F 5.3 °F 12.6 °F 71% 30.08 in 10.0 mi NW 19.6 mph 28.8 mph N/A   Scattered Clouds
8:35 PM 20.5 °F 4.6 °F 13.1 °F 73% 30.08 in 10.0 mi NW 20.7 mph 31.1 mph N/A   Scattered Clouds
8:55 PM 20.8 °F 5.1 °F 12.9 °F 71% 30.09 in 10.0 mi NW 20.7 mph 26.5 mph N/A   Scattered Clouds
9:15 PM 20.5 °F 5.0 °F 12.0 °F 70% 30.09 in 10.0 mi NW 19.6 mph 28.8 mph N/A   Scattered Clouds
9:35 PM 20.1 °F 5.4 °F 12.2 °F 71% 30.09 in 10.0 mi NW 17.3 mph 25.3 mph N/A   Scattered Clouds
9:55 PM 19.4 °F 2.5 °F 11.3 °F 71% 30.09 in 10.0 mi NW 23.0 mph 28.8 mph N/A   Scattered Clouds
10:15 PM 18.5 °F 2.0 °F 10.6 °F 71% 30.10 in 10.0 mi NW 20.7 mph 29.9 mph N/A   Clear
10:35 PM 18.0 °F 1.3 °F 10.0 °F 71% 30.10 in 10.0 mi NW 20.7 mph 28.8 mph N/A   Clear
10:55 PM 17.6 °F 0.5 °F 10.0 °F 72% 30.10 in 10.0 mi NW 21.9 mph 29.9 mph N/A   Clear
11:15 PM 17.1 °F 2.0 °F 10.0 °F 74% 30.11 in 10.0 mi NNW 16.1 mph 25.3 mph N/A   Clear
11:35 PM 16.5 °F 0.8 °F 10.0 °F 76% 30.11 in 10.0 mi NW 17.3 mph - N/A   Clear
11:55 PM 16.3 °F 0.5 °F 9.5 °F 74% 30.11 in 10.0 mi NW 17.3 mph 24.2 mph N/A   Clear